contact: severine.martini@mio.osupytheas.fr, dominique.lefevre@mio.osupytheas.fr
Project:EMSO Ligure-ouest http://www.emso-fr.org/EMSO-France
Sensor Microcat Sea-Bird SBE37 SMP,  Serial 57510 
DOI : "https://doi.org/10.17882/97948" 
Title:EMSO Ligure Ouest : Data Bathybot capteur Microcat - deploiement 2023-04-28
Datetime,Profondeur,Latitude,Longitude,Temperature,Conductivite,Pression,Salinite
time,m,degree_north,degree_east,degree_C,S/m,db,PSU 
2023-11-02T00:00:50,2420,42.8014,5.9826,13.2972,4.42464,2453.649,36.8463
2023-11-02T00:03:49,2420,42.8014,5.9826,13.2970,4.42415,2453.627,36.8419
2023-11-02T00:06:49,2420,42.8014,5.9826,13.2970,4.42368,2453.604,36.8375
2023-11-02T00:09:49,2420,42.8014,5.9826,13.2973,4.42435,2453.627,36.8434
2023-11-02T00:12:49,2420,42.8014,5.9826,13.2968,4.42537,2453.612,36.8535
2023-11-02T00:15:49,2420,42.8014,5.9826,13.2973,4.42513,2453.627,36.8508
2023-11-02T00:18:49,2420,42.8014,5.9826,13.2972,4.42546,2453.627,36.8540
2023-11-02T00:21:49,2420,42.8014,5.9826,13.2969,4.42552,2453.627,36.8548
2023-11-02T00:24:49,2420,42.8014,5.9826,13.2968,4.42497,2453.627,36.8498
2023-11-02T00:27:49,2420,42.8014,5.9826,13.2972,4.42478,2453.590,36.8476
2023-11-02T00:30:49,2420,42.8014,5.9826,13.2973,4.42451,2453.604,36.8450
2023-11-02T00:33:49,2420,42.8014,5.9826,13.2969,4.42510,2453.604,36.8509
2023-11-02T00:36:49,2420,42.8014,5.9826,13.2970,4.42568,2453.627,36.8563
2023-11-02T00:39:49,2420,42.8014,5.9826,13.2968,4.42501,2453.604,36.8501
2023-11-02T00:42:49,2420,42.8014,5.9826,13.2970,4.42505,2453.619,36.8503
2023-11-02T00:45:49,2420,42.8014,5.9826,13.2974,4.42650,2453.582,36.8635
2023-11-02T00:48:49,2420,42.8014,5.9826,13.2974,4.42515,2453.590,36.8509
2023-11-02T00:51:49,2420,42.8014,5.9826,13.2972,4.42448,2453.627,36.8448
2023-11-02T00:54:49,2420,42.8014,5.9826,13.2975,4.42470,2453.604,36.8466
2023-11-02T00:57:49,2420,42.8014,5.9826,13.2971,4.42470,2453.567,36.8469
2023-11-02T01:00:49,2420,42.8014,5.9826,13.2971,4.42364,2453.559,36.8370
2023-11-02T01:03:49,2420,42.8014,5.9826,13.2967,4.42413,2453.604,36.8420
2023-11-02T01:06:49,2420,42.8014,5.9826,13.2970,4.42515,2453.567,36.8513
2023-11-02T01:09:49,2420,42.8014,5.9826,13.2973,4.42155,2453.596,36.8172
2023-11-02T01:12:49,2420,42.8014,5.9826,13.2973,4.42128,2453.604,36.8146
2023-11-02T01:15:49,2420,42.8014,5.9826,13.2973,4.42258,2453.559,36.8268
2023-11-02T01:18:49,2420,42.8014,5.9826,13.2974,4.42349,2453.604,36.8353
2023-11-02T01:21:49,2420,42.8014,5.9826,13.2969,4.42411,2453.582,36.8416
2023-11-02T01:24:49,2420,42.8014,5.9826,13.2972,4.42419,2453.559,36.8421
2023-11-02T01:27:49,2420,42.8014,5.9826,13.2970,4.42437,2453.582,36.8440
2023-11-02T01:30:49,2420,42.8014,5.9826,13.2970,4.42461,2453.604,36.8462
2023-11-02T01:33:49,2420,42.8014,5.9826,13.2975,4.42400,2453.582,36.8400
2023-11-02T01:36:49,2420,42.8014,5.9826,13.2973,4.42427,2453.582,36.8428
2023-11-02T01:39:49,2420,42.8014,5.9826,13.2973,4.42360,2453.582,36.8364
2023-11-02T01:42:49,2420,42.8014,5.9826,13.2969,4.42372,2453.559,36.8380
2023-11-02T01:45:49,2420,42.8014,5.9826,13.2972,4.42410,2453.559,36.8412
2023-11-02T01:48:49,2420,42.8014,5.9826,13.2970,4.42398,2453.559,36.8403
2023-11-02T01:51:49,2420,42.8014,5.9826,13.2968,4.42422,2453.559,36.8427
2023-11-02T01:54:49,2420,42.8014,5.9826,13.2970,4.42395,2453.559,36.8400
2023-11-02T01:57:49,2420,42.8014,5.9826,13.2974,4.42447,2453.582,36.8445
2023-11-02T02:00:49,2420,42.8014,5.9826,13.2970,4.42411,2453.559,36.8415
2023-11-02T02:03:49,2420,42.8014,5.9826,13.2973,4.42422,2453.537,36.8423
2023-11-02T02:06:49,2420,42.8014,5.9826,13.2973,4.42419,2453.537,36.8420
2023-11-02T02:09:49,2420,42.8014,5.9826,13.2970,4.42428,2453.574,36.8432
2023-11-02T02:12:49,2420,42.8014,5.9826,13.2972,4.42445,2453.559,36.8445
2023-11-02T02:15:49,2420,42.8014,5.9826,13.2968,4.42453,2453.551,36.8456
2023-11-02T02:18:49,2420,42.8014,5.9826,13.2973,4.42407,2453.537,36.8409
2023-11-02T02:21:49,2420,42.8014,5.9826,13.2971,4.42368,2453.582,36.8374
2023-11-02T02:24:49,2420,42.8014,5.9826,13.2970,4.42390,2453.582,36.8395
2023-11-02T02:27:49,2420,42.8014,5.9826,13.2970,4.42412,2453.582,36.8416
2023-11-02T02:30:49,2420,42.8014,5.9826,13.2973,4.42341,2453.559,36.8346
2023-11-02T02:33:49,2420,42.8014,5.9826,13.2968,4.42348,2453.544,36.8358
2023-11-02T02:36:49,2420,42.8014,5.9826,13.2970,4.42341,2453.537,36.8349
2023-11-02T02:39:49,2420,42.8014,5.9826,13.2973,4.42354,2453.619,36.8359
2023-11-02T02:42:49,2420,42.8014,5.9826,13.2970,4.42365,2453.582,36.8371
2023-11-02T02:45:49,2420,42.8014,5.9826,13.2973,4.42445,2453.559,36.8445
2023-11-02T02:48:49,2420,42.8014,5.9826,13.2973,4.42448,2453.559,36.8447
2023-11-02T02:51:49,2420,42.8014,5.9826,13.2972,4.42413,2453.559,36.8416
2023-11-02T02:54:49,2420,42.8014,5.9826,13.2975,4.42475,2453.551,36.8470
2023-11-02T02:57:49,2420,42.8014,5.9826,13.2971,4.42434,2453.544,36.8435
2023-11-02T03:00:49,2420,42.8014,5.9826,13.2974,4.42387,2453.537,36.8389
2023-11-02T03:03:49,2420,42.8014,5.9826,13.2970,4.42485,2453.514,36.8485
2023-11-02T03:06:49,2420,42.8014,5.9826,13.2973,4.42464,2453.522,36.8462
2023-11-02T03:09:49,2420,42.8014,5.9826,13.2973,4.42404,2453.574,36.8405
2023-11-02T03:12:49,2420,42.8014,5.9826,13.2973,4.42466,2453.559,36.8463
2023-11-02T03:15:49,2420,42.8014,5.9826,13.2977,4.42488,2453.559,36.8481
2023-11-02T03:18:49,2420,42.8014,5.9826,13.2970,4.42395,2453.559,36.8400
2023-11-02T03:21:49,2420,42.8014,5.9826,13.2975,4.42394,2453.559,36.8395
2023-11-02T03:24:49,2420,42.8014,5.9826,13.2974,4.42376,2453.559,36.8379
2023-11-02T03:27:49,2420,42.8014,5.9826,13.2974,4.42464,2453.551,36.8461
2023-11-02T03:30:50,2420,42.8014,5.9826,13.2974,4.42485,2453.559,36.8481
2023-11-02T03:33:49,2420,42.8014,5.9826,13.2974,4.42446,2453.537,36.8444
2023-11-02T03:36:49,2420,42.8014,5.9826,13.2973,4.42347,2453.559,36.8353
2023-11-02T03:39:49,2420,42.8014,5.9826,13.2973,4.42277,2453.559,36.8287
2023-11-02T03:42:49,2420,42.8014,5.9826,13.2972,4.42335,2453.537,36.8342
2023-11-02T03:45:49,2420,42.8014,5.9826,13.2972,4.42349,2453.537,36.8355
2023-11-02T03:48:49,2420,42.8014,5.9826,13.2973,4.42308,2453.537,36.8316
2023-11-02T03:51:49,2420,42.8014,5.9826,13.2972,4.42260,2453.559,36.8272
2023-11-02T03:54:49,2420,42.8014,5.9826,13.2968,4.42252,2453.559,36.8268
2023-11-02T03:57:49,2420,42.8014,5.9826,13.2976,4.42221,2453.559,36.8231
2023-11-02T04:00:50,2420,42.8014,5.9826,13.2976,4.42128,2453.537,36.8144
2023-11-02T04:03:49,2420,42.8014,5.9826,13.2974,4.42085,2453.537,36.8106
2023-11-02T04:06:49,2420,42.8014,5.9826,13.2971,4.41961,2453.522,36.7992
2023-11-02T04:09:49,2420,42.8014,5.9826,13.2973,4.41876,2453.537,36.7911
2023-11-02T04:12:49,2420,42.8014,5.9826,13.2978,4.41969,2453.559,36.7993
2023-11-02T04:15:49,2420,42.8014,5.9826,13.2973,4.42017,2453.559,36.8043
2023-11-02T04:18:49,2420,42.8014,5.9826,13.2975,4.42047,2453.514,36.8069
2023-11-02T04:21:49,2420,42.8014,5.9826,13.2971,4.41985,2453.537,36.8015
2023-11-02T04:24:49,2420,42.8014,5.9826,13.2976,4.42045,2453.574,36.8066
2023-11-02T04:27:49,2420,42.8014,5.9826,13.2975,4.42221,2453.537,36.8232
2023-11-02T04:30:50,2420,42.8014,5.9826,13.2975,4.42240,2453.559,36.8251
2023-11-02T04:33:49,2420,42.8014,5.9826,13.2975,4.42237,2453.537,36.8248
2023-11-02T04:36:49,2420,42.8014,5.9826,13.2973,4.42264,2453.537,36.8275
2023-11-02T04:39:49,2420,42.8014,5.9826,13.2972,4.42347,2453.514,36.8353
2023-11-02T04:42:49,2420,42.8014,5.9826,13.2974,4.42276,2453.522,36.8285
2023-11-02T04:45:49,2420,42.8014,5.9826,13.2972,4.42371,2453.537,36.8376
2023-11-02T04:48:49,2420,42.8014,5.9826,13.2973,4.42422,2453.537,36.8423
2023-11-02T04:51:49,2420,42.8014,5.9826,13.2975,4.42390,2453.559,36.8391
2023-11-02T04:54:49,2420,42.8014,5.9826,13.2976,4.42323,2453.559,36.8326
2023-11-02T04:57:49,2420,42.8014,5.9826,13.2976,4.42437,2453.559,36.8434
2023-11-02T05:00:49,2420,42.8014,5.9826,13.2975,4.42414,2453.544,36.8414
2023-11-02T05:03:49,2420,42.8014,5.9826,13.2973,4.42352,2453.559,36.8358
2023-11-02T05:06:49,2420,42.8014,5.9826,13.2973,4.42408,2453.537,36.8409
2023-11-02T05:09:49,2420,42.8014,5.9826,13.2977,4.42304,2453.537,36.8309
2023-11-02T05:12:49,2420,42.8014,5.9826,13.2972,4.42259,2453.551,36.8271
2023-11-02T05:15:49,2420,42.8014,5.9826,13.2973,4.42323,2453.544,36.8329
2023-11-02T05:18:49,2420,42.8014,5.9826,13.2972,4.42324,2453.537,36.8332
2023-11-02T05:21:49,2420,42.8014,5.9826,13.2976,4.42312,2453.559,36.8317
2023-11-02T05:24:49,2420,42.8014,5.9826,13.2973,4.42345,2453.559,36.8351
2023-11-02T05:27:49,2420,42.8014,5.9826,13.2979,4.42387,2453.582,36.8384
2023-11-02T05:30:49,2420,42.8014,5.9826,13.2976,4.42347,2453.559,36.8349
2023-11-02T05:33:49,2420,42.8014,5.9826,13.2970,4.42361,2453.582,36.8368
2023-11-02T05:36:49,2420,42.8014,5.9826,13.2981,4.42344,2453.537,36.8342
2023-11-02T05:39:49,2420,42.8014,5.9826,13.2975,4.42360,2453.537,36.8363
2023-11-02T05:42:49,2420,42.8014,5.9826,13.2978,4.42396,2453.559,36.8393
2023-11-02T05:45:49,2420,42.8014,5.9826,13.2977,4.42260,2453.559,36.8267
2023-11-02T05:48:49,2420,42.8014,5.9826,13.2978,4.42379,2453.574,36.8378
2023-11-02T05:51:49,2420,42.8014,5.9826,13.2977,4.42387,2453.559,36.8387
2023-11-02T05:54:49,2420,42.8014,5.9826,13.2973,4.42312,2453.582,36.8319
2023-11-02T05:57:50,2420,42.8014,5.9826,13.2979,4.42333,2453.582,36.8333
2023-11-02T06:00:49,2420,42.8014,5.9826,13.2975,4.42387,2453.582,36.8388
2023-11-02T06:03:49,2420,42.8014,5.9826,13.2973,4.42381,2453.582,36.8384
2023-11-02T06:06:49,2420,42.8014,5.9826,13.2974,4.42383,2453.582,36.8385
2023-11-02T06:09:49,2420,42.8014,5.9826,13.2978,4.42390,2453.559,36.8388
2023-11-02T06:12:49,2420,42.8014,5.9826,13.2978,4.42256,2453.604,36.8262
2023-11-02T06:15:49,2420,42.8014,5.9826,13.2975,4.42325,2453.604,36.8330
2023-11-02T06:18:49,2420,42.8014,5.9826,13.2977,4.42400,2453.582,36.8399
2023-11-02T06:21:49,2420,42.8014,5.9826,13.2978,4.42426,2453.582,36.8421
2023-11-02T06:24:49,2420,42.8014,5.9826,13.2975,4.42391,2453.604,36.8391
2023-11-02T06:27:49,2420,42.8014,5.9826,13.2979,4.42403,2453.604,36.8399
2023-11-02T06:30:49,2420,42.8014,5.9826,13.2975,4.42384,2453.596,36.8386
2023-11-02T06:33:49,2420,42.8014,5.9826,13.2978,4.42401,2453.567,36.8399
2023-11-02T06:36:49,2420,42.8014,5.9826,13.2976,4.42474,2453.582,36.8468
2023-11-02T06:39:49,2420,42.8014,5.9826,13.2979,4.42406,2453.604,36.8401
2023-11-02T06:42:49,2420,42.8014,5.9826,13.2978,4.42386,2453.604,36.8384
2023-11-02T06:45:49,2420,42.8014,5.9826,13.2979,4.42393,2453.590,36.8389
2023-11-02T06:48:49,2420,42.8014,5.9826,13.2977,4.42411,2453.627,36.8409
2023-11-02T06:51:49,2420,42.8014,5.9826,13.2978,4.42431,2453.627,36.8426
2023-11-02T06:54:49,2420,42.8014,5.9826,13.2978,4.42354,2453.627,36.8354
2023-11-02T06:57:49,2420,42.8014,5.9826,13.2978,4.42403,2453.627,36.8399
2023-11-02T07:00:49,2420,42.8014,5.9826,13.2980,4.42359,2453.627,36.8357
2023-11-02T07:03:49,2420,42.8014,5.9826,13.2979,4.42365,2453.627,36.8364
2023-11-02T07:06:49,2420,42.8014,5.9826,13.2978,4.42350,2453.649,36.8351
2023-11-02T07:09:49,2420,42.8014,5.9826,13.2978,4.42341,2453.635,36.8341
2023-11-02T07:12:49,2420,42.8014,5.9826,13.2978,4.42455,2453.627,36.8448
2023-11-02T07:15:49,2420,42.8014,5.9826,13.2973,4.42395,2453.649,36.8397
2023-11-02T07:18:49,2420,42.8014,5.9826,13.2980,4.42402,2453.672,36.8397
2023-11-02T07:21:49,2420,42.8014,5.9826,13.2974,4.42426,2453.649,36.8425
2023-11-02T07:24:49,2420,42.8014,5.9826,13.2977,4.42390,2453.649,36.8389
2023-11-02T07:27:49,2420,42.8014,5.9826,13.2978,4.42389,2453.672,36.8387
2023-11-02T07:30:49,2420,42.8014,5.9826,13.2975,4.42398,2453.672,36.8397
2023-11-02T07:33:49,2420,42.8014,5.9826,13.2978,4.42438,2453.649,36.8433
2023-11-02T07:36:49,2420,42.8014,5.9826,13.2979,4.42383,2453.672,36.8380
2023-11-02T07:39:50,2420,42.8014,5.9826,13.2979,4.42421,2453.649,36.8415
2023-11-02T07:42:49,2420,42.8014,5.9826,13.2976,4.42334,2453.672,36.8336
2023-11-02T07:45:49,2420,42.8014,5.9826,13.2978,4.42371,2453.695,36.8370
2023-11-02T07:48:49,2420,42.8014,5.9826,13.2980,4.42276,2453.695,36.8279
2023-11-02T07:51:49,2420,42.8014,5.9826,13.2979,4.42355,2453.672,36.8353
2023-11-02T07:54:49,2420,42.8014,5.9826,13.2978,4.42392,2453.709,36.8389
2023-11-02T07:57:49,2420,42.8014,5.9826,13.2979,4.42411,2453.695,36.8406
2023-11-02T08:00:49,2420,42.8014,5.9826,13.2980,4.42459,2453.695,36.8450
2023-11-02T08:03:49,2420,42.8014,5.9826,13.2980,4.42344,2453.695,36.8343
2023-11-02T08:06:49,2420,42.8014,5.9826,13.2978,4.42400,2453.709,36.8397
2023-11-02T08:09:49,2420,42.8014,5.9826,13.2978,4.42416,2453.717,36.8412
2023-11-02T08:12:49,2420,42.8014,5.9826,13.2978,4.42427,2453.672,36.8423
2023-11-02T08:15:49,2420,42.8014,5.9826,13.2978,4.42428,2453.695,36.8424
2023-11-02T08:18:49,2420,42.8014,5.9826,13.2978,4.42392,2453.717,36.8389
2023-11-02T08:21:49,2420,42.8014,5.9826,13.2978,4.42399,2453.717,36.8396
2023-11-02T08:24:49,2420,42.8014,5.9826,13.2975,4.42397,2453.740,36.8396
2023-11-02T08:27:49,2420,42.8014,5.9826,13.2977,4.42326,2453.754,36.8328
2023-11-02T08:30:49,2420,42.8014,5.9826,13.2978,4.42376,2453.695,36.8374
2023-11-02T08:33:49,2420,42.8014,5.9826,13.2976,4.42315,2453.717,36.8318
2023-11-02T08:36:49,2420,42.8014,5.9826,13.2979,4.42392,2453.695,36.8388
2023-11-02T08:39:49,2420,42.8014,5.9826,13.2981,4.42413,2453.702,36.8406
2023-11-02T08:42:49,2420,42.8014,5.9826,13.2977,4.42357,2453.740,36.8357
2023-11-02T08:45:49,2420,42.8014,5.9826,13.2976,4.42376,2453.717,36.8376
2023-11-02T08:48:49,2420,42.8014,5.9826,13.2982,4.42458,2453.740,36.8447
2023-11-02T08:51:49,2420,42.8014,5.9826,13.2977,4.42363,2453.740,36.8364
2023-11-02T08:54:49,2420,42.8014,5.9826,13.2982,4.42328,2453.717,36.8326
2023-11-02T08:57:49,2420,42.8014,5.9826,13.2976,4.42430,2453.740,36.8427
2023-11-02T09:00:49,2420,42.8014,5.9826,13.2976,4.42344,2453.717,36.8346
2023-11-02T09:03:49,2420,42.8014,5.9826,13.2983,4.42399,2453.717,36.8391
2023-11-02T09:06:49,2420,42.8014,5.9826,13.2978,4.42386,2453.777,36.8384
2023-11-02T09:09:49,2420,42.8014,5.9826,13.2979,4.42450,2453.740,36.8443
2023-11-02T09:12:49,2420,42.8014,5.9826,13.2978,4.42331,2453.740,36.8332
2023-11-02T09:15:49,2420,42.8014,5.9826,13.2975,4.42409,2453.740,36.8408
2023-11-02T09:18:49,2420,42.8014,5.9826,13.2978,4.42328,2453.725,36.8329
2023-11-02T09:21:49,2420,42.8014,5.9826,13.2976,4.42329,2453.717,36.8332
2023-11-02T09:24:49,2420,42.8014,5.9826,13.2978,4.42356,2453.725,36.8355
2023-11-02T09:27:49,2420,42.8014,5.9826,13.2978,4.42354,2453.717,36.8354
2023-11-02T09:30:49,2420,42.8014,5.9826,13.2979,4.42365,2453.740,36.8363
2023-11-02T09:33:49,2420,42.8014,5.9826,13.2975,4.42447,2453.717,36.8443
2023-11-02T09:36:49,2420,42.8014,5.9826,13.2980,4.42400,2453.695,36.8394
2023-11-02T09:39:49,2420,42.8014,5.9826,13.2977,4.42410,2453.740,36.8407
2023-11-02T09:42:49,2420,42.8014,5.9826,13.2982,4.42483,2453.740,36.8470
2023-11-02T09:45:49,2420,42.8014,5.9826,13.2976,4.42427,2453.702,36.8424
2023-11-02T09:48:49,2420,42.8014,5.9826,13.2975,4.42339,2453.717,36.8342
2023-11-02T09:51:49,2420,42.8014,5.9826,13.2979,4.42428,2453.748,36.8422
2023-11-02T09:54:49,2420,42.8014,5.9826,13.2978,4.42497,2453.754,36.8487
2023-11-02T09:57:49,2420,42.8014,5.9826,13.2978,4.42550,2453.725,36.8538
2023-11-02T10:00:49,2420,42.8014,5.9826,13.2975,4.42526,2453.740,36.8517
2023-11-02T10:03:49,2420,42.8014,5.9826,13.2979,4.42500,2453.740,36.8489
2023-11-02T10:06:49,2420,42.8014,5.9826,13.2975,4.42442,2453.740,36.8439
2023-11-02T10:09:49,2420,42.8014,5.9826,13.2979,4.42494,2453.717,36.8484
2023-11-02T10:12:49,2420,42.8014,5.9826,13.2979,4.42461,2453.717,36.8453
2023-11-02T10:15:49,2420,42.8014,5.9826,13.2981,4.42405,2453.740,36.8398
2023-11-02T10:18:49,2420,42.8014,5.9826,13.2982,4.42427,2453.740,36.8418
2023-11-02T10:21:49,2420,42.8014,5.9826,13.2979,4.42437,2453.740,36.8430
2023-11-02T10:24:49,2420,42.8014,5.9826,13.2982,4.42489,2453.740,36.8477
2023-11-02T10:27:49,2420,42.8014,5.9826,13.2979,4.42416,2453.754,36.8410
2023-11-02T10:30:49,2420,42.8014,5.9826,13.2982,4.42506,2453.725,36.8492
2023-11-02T10:33:49,2420,42.8014,5.9826,13.2978,4.42459,2453.740,36.8451
2023-11-02T10:36:49,2420,42.8014,5.9826,13.2976,4.42430,2453.807,36.8427
2023-11-02T10:39:49,2420,42.8014,5.9826,13.2981,4.42416,2453.740,36.8409
2023-11-02T10:42:49,2420,42.8014,5.9826,13.2978,4.42515,2453.740,36.8504
2023-11-02T10:45:49,2420,42.8014,5.9826,13.2976,4.42484,2453.740,36.8477
2023-11-02T10:48:49,2420,42.8014,5.9826,13.2980,4.42451,2453.740,36.8442
2023-11-02T10:51:49,2420,42.8014,5.9826,13.2979,4.42373,2453.740,36.8371
2023-11-02T10:54:49,2420,42.8014,5.9826,13.2982,4.42535,2453.754,36.8519
2023-11-02T10:57:49,2420,42.8014,5.9826,13.2977,4.42486,2453.807,36.8478
2023-11-02T11:00:49,2420,42.8014,5.9826,13.2979,4.42463,2453.807,36.8454
2023-11-02T11:03:49,2420,42.8014,5.9826,13.2978,4.42344,2453.762,36.8345
2023-11-02T11:06:49,2420,42.8014,5.9826,13.2974,4.42370,2453.762,36.8372
2023-11-02T11:09:49,2420,42.8014,5.9826,13.2978,4.42423,2453.748,36.8418
2023-11-02T11:12:49,2420,42.8014,5.9826,13.2976,4.42487,2453.762,36.8480
2023-11-02T11:15:49,2420,42.8014,5.9826,13.2976,4.42373,2453.762,36.8373
2023-11-02T11:18:49,2420,42.8014,5.9826,13.2973,4.42424,2453.762,36.8424
2023-11-02T11:21:49,2420,42.8014,5.9826,13.2982,4.42498,2453.785,36.8485
2023-11-02T11:24:49,2420,42.8014,5.9826,13.2978,4.42488,2453.740,36.8478
2023-11-02T11:27:49,2420,42.8014,5.9826,13.2975,4.42435,2453.740,36.8433
2023-11-02T11:30:49,2420,42.8014,5.9826,13.2978,4.42410,2453.762,36.8406
2023-11-02T11:33:49,2420,42.8014,5.9826,13.2976,4.42456,2453.762,36.8451
2023-11-02T11:36:49,2420,42.8014,5.9826,13.2976,4.42447,2453.762,36.8443
2023-11-02T11:39:49,2420,42.8014,5.9826,13.2975,4.42459,2453.762,36.8455
2023-11-02T11:42:49,2420,42.8014,5.9826,13.2979,4.42483,2453.770,36.8473
2023-11-02T11:45:49,2420,42.8014,5.9826,13.2979,4.42459,2453.740,36.8451
2023-11-02T11:48:49,2420,42.8014,5.9826,13.2977,4.42462,2453.762,36.8456
2023-11-02T11:51:49,2420,42.8014,5.9826,13.2979,4.42408,2453.762,36.8403
2023-11-02T11:54:49,2420,42.8014,5.9826,13.2978,4.42451,2453.740,36.8444
2023-11-02T11:57:49,2420,42.8014,5.9826,13.2978,4.42413,2453.740,36.8410
2023-11-02T12:00:49,2420,42.8014,5.9826,13.2978,4.42384,2453.748,36.8382
2023-11-02T12:03:49,2420,42.8014,5.9826,13.2973,4.42447,2453.740,36.8445
2023-11-02T12:06:49,2420,42.8014,5.9826,13.2975,4.42489,2453.740,36.8483
2023-11-02T12:09:49,2420,42.8014,5.9826,13.2974,4.42424,2453.740,36.8423
2023-11-02T12:12:49,2420,42.8014,5.9826,13.2976,4.42392,2453.762,36.8391
2023-11-02T12:15:49,2420,42.8014,5.9826,13.2976,4.42273,2453.748,36.8279
2023-11-02T12:18:49,2420,42.8014,5.9826,13.2977,4.42361,2453.762,36.8361
2023-11-02T12:21:49,2420,42.8014,5.9826,13.2975,4.42310,2453.702,36.8315
2023-11-02T12:24:49,2420,42.8014,5.9826,13.2976,4.42387,2453.762,36.8386
2023-11-02T12:27:49,2420,42.8014,5.9826,13.2979,4.42399,2453.702,36.8395
2023-11-02T12:30:49,2420,42.8014,5.9826,13.2974,4.42403,2453.740,36.8403
2023-11-02T12:33:49,2420,42.8014,5.9826,13.2976,4.42376,2453.748,36.8376
2023-11-02T12:36:49,2420,42.8014,5.9826,13.2975,4.42464,2453.762,36.8459
2023-11-02T12:39:50,2420,42.8014,5.9826,13.2979,4.42392,2453.702,36.8389
2023-11-02T12:42:49,2420,42.8014,5.9826,13.2975,4.42397,2453.702,36.8397
2023-11-02T12:45:49,2420,42.8014,5.9826,13.2978,4.42328,2453.740,36.8329
2023-11-02T12:48:49,2420,42.8014,5.9826,13.2974,4.42419,2453.717,36.8418
2023-11-02T12:51:49,2420,42.8014,5.9826,13.2977,4.42284,2453.725,36.8289
2023-11-02T12:54:49,2420,42.8014,5.9826,13.2974,4.42291,2453.695,36.8299
2023-11-02T12:57:49,2420,42.8014,5.9826,13.2975,4.42291,2453.717,36.8298
2023-11-02T13:00:49,2420,42.8014,5.9826,13.2975,4.42375,2453.695,36.8377
2023-11-02T13:03:49,2420,42.8014,5.9826,13.2979,4.42384,2453.702,36.8381
2023-11-02T13:06:49,2420,42.8014,5.9826,13.2978,4.42424,2453.717,36.8420
2023-11-02T13:09:49,2420,42.8014,5.9826,13.2975,4.42430,2453.695,36.8428
2023-11-02T13:12:49,2420,42.8014,5.9826,13.2973,4.42355,2453.717,36.8359
2023-11-02T13:15:49,2420,42.8014,5.9826,13.2978,4.42428,2453.702,36.8424
2023-11-02T13:18:49,2420,42.8014,5.9826,13.2979,4.42355,2453.717,36.8353
2023-11-02T13:21:49,2420,42.8014,5.9826,13.2975,4.42395,2453.717,36.8395
2023-11-02T13:24:49,2420,42.8014,5.9826,13.2976,4.42379,2453.717,36.8378
2023-11-02T13:27:49,2420,42.8014,5.9826,13.2975,4.42402,2453.672,36.8401
2023-11-02T13:30:49,2420,42.8014,5.9826,13.2973,4.42345,2453.672,36.8350
2023-11-02T13:33:49,2420,42.8014,5.9826,13.2975,4.42336,2453.725,36.8339
2023-11-02T13:36:49,2420,42.8014,5.9826,13.2978,4.42273,2453.657,36.8277
2023-11-02T13:39:49,2420,42.8014,5.9826,13.2973,4.42786,2453.672,36.8763
2023-11-02T13:42:49,2420,42.8014,5.9826,13.2979,4.42827,2453.695,36.8796
2023-11-02T13:45:49,2420,42.8014,5.9826,13.2976,4.42755,2453.732,36.8731
2023-11-02T13:48:49,2420,42.8014,5.9826,13.2980,4.42750,2453.695,36.8723
2023-11-02T13:51:49,2420,42.8014,5.9826,13.2978,4.42771,2453.695,36.8745
2023-11-02T13:54:49,2420,42.8014,5.9826,13.2976,4.42758,2453.695,36.8734
2023-11-02T13:57:49,2420,42.8014,5.9826,13.2975,4.42793,2453.717,36.8767
2023-11-02T14:00:49,2420,42.8014,5.9826,13.2979,4.42684,2453.672,36.8662
2023-11-02T14:03:49,2420,42.8014,5.9826,13.2978,4.42675,2453.657,36.8654
2023-11-02T14:06:49,2420,42.8014,5.9826,13.2977,4.42773,2453.657,36.8748
2023-11-02T14:09:49,2420,42.8014,5.9826,13.2978,4.42729,2453.672,36.8705
2023-11-02T14:12:49,2420,42.8014,5.9826,13.2975,4.42768,2453.672,36.8744
2023-11-02T14:15:49,2420,42.8014,5.9826,13.2973,4.42734,2453.657,36.8715
2023-11-02T14:18:49,2420,42.8014,5.9826,13.2978,4.42749,2453.695,36.8724
2023-11-02T14:21:49,2420,42.8014,5.9826,13.2976,4.42740,2453.672,36.8717
2023-11-02T14:24:49,2420,42.8014,5.9826,13.2978,4.42722,2453.687,36.8698
2023-11-02T14:27:49,2420,42.8014,5.9826,13.2974,4.42654,2453.695,36.8639
2023-11-02T14:30:49,2420,42.8014,5.9826,13.2978,4.42691,2453.664,36.8670
2023-11-02T14:33:49,2420,42.8014,5.9826,13.2977,4.42696,2453.672,36.8675
2023-11-02T14:36:49,2420,42.8014,5.9826,13.2979,4.42680,2453.649,36.8658
2023-11-02T14:39:49,2420,42.8014,5.9826,13.2974,4.42681,2453.672,36.8664
2023-11-02T14:42:49,2420,42.8014,5.9826,13.2972,4.42615,2453.672,36.8604
2023-11-02T14:45:49,2420,42.8014,5.9826,13.2977,4.42611,2453.627,36.8596
2023-11-02T14:48:49,2420,42.8014,5.9826,13.2975,4.42607,2453.635,36.8594
2023-11-02T14:51:49,2420,42.8014,5.9826,13.2973,4.42597,2453.672,36.8586
2023-11-02T14:54:49,2420,42.8014,5.9826,13.2974,4.42597,2453.635,36.8585
2023-11-02T14:57:49,2420,42.8014,5.9826,13.2977,4.42570,2453.664,36.8557
2023-11-02T15:00:49,2420,42.8014,5.9826,13.2978,4.42596,2453.627,36.8581
2023-11-02T15:03:49,2420,42.8014,5.9826,13.2976,4.42560,2453.672,36.8549
2023-11-02T15:06:49,2420,42.8014,5.9826,13.2975,4.42580,2453.649,36.8568
2023-11-02T15:09:49,2420,42.8014,5.9826,13.2979,4.42493,2453.627,36.8483
2023-11-02T15:12:49,2420,42.8014,5.9826,13.2977,4.42475,2453.649,36.8468
2023-11-02T15:15:49,2420,42.8014,5.9826,13.2978,4.42509,2453.604,36.8499
2023-11-02T15:18:49,2420,42.8014,5.9826,13.2973,4.42494,2453.635,36.8490
2023-11-02T15:21:49,2420,42.8014,5.9826,13.2975,4.42487,2453.612,36.8481
2023-11-02T15:24:49,2420,42.8014,5.9826,13.2979,4.42460,2453.664,36.8452
2023-11-02T15:27:49,2420,42.8014,5.9826,13.2977,4.42453,2453.627,36.8448
2023-11-02T15:30:49,2420,42.8014,5.9826,13.2976,4.42566,2453.649,36.8554
2023-11-02T15:33:49,2420,42.8014,5.9826,13.2974,4.42677,2453.627,36.8660
2023-11-02T15:36:49,2420,42.8014,5.9826,13.2974,4.42610,2453.619,36.8598
2023-11-02T15:39:49,2420,42.8014,5.9826,13.2978,4.42744,2453.664,36.8719
2023-11-02T15:42:49,2420,42.8014,5.9826,13.2975,4.42656,2453.641,36.8641
2023-11-02T15:45:49,2420,42.8014,5.9826,13.2974,4.42654,2453.627,36.8639
2023-11-02T15:48:49,2420,42.8014,5.9826,13.2975,4.42662,2453.604,36.8646
2023-11-02T15:51:49,2420,42.8014,5.9826,13.2975,4.42657,2453.612,36.8641
2023-11-02T15:54:49,2420,42.8014,5.9826,13.2978,4.42635,2453.604,36.8617
2023-11-02T15:57:49,2420,42.8014,5.9826,13.2979,4.42692,2453.590,36.8670
2023-11-02T16:00:49,2420,42.8014,5.9826,13.2977,4.42624,2453.641,36.8608
2023-11-02T16:03:49,2420,42.8014,5.9826,13.2978,4.42624,2453.604,36.8607